Flag for Finland Weather past 2 weeks in Rovaniemi, Finland

Now
16 °F

Light snow. Low clouds.


Feels Like: 3 °F
Forecast: 16 / 22 °F
Wind: 10 mph from Northeast

Location: Rovaniemi Airport

Current Time: Jan 31, 2015 at 11:03:23 AM

Latest Report: Jan 31, 2015 at 10:20 AM


Visibility: N/A

Pressure: 29.45 "Hg

Humidity: 100%

Dew point: 16 °F

Location of RovaniemiLocation

Historic Weather in Rovaniemi — Graph

°F

Rovaniemi temperature yesterday

Maximum temperature yesterday: 16 °F (at 9:20 PM)
Minimum temperature yesterday: 14 °F (at 12:20 AM)
Average temperature yesterday: 14 °F

Past Weeks' High & Low Weather Summary

 TemperatureHumidityPressure
High30 °F (Jan 16, 8:50 PM)100% (Jan 16, 9:20 AM)30.48 "Hg (Jan 16, 9:20 AM)
Low-8 °F (Jan 20, 11:20 PM)84% (Jan 19, 6:20 PM)28.88 "Hg (Jan 17, 4:20 AM)
Average14 °F95%29.69 "Hg
* Reported Jan 16 9:20 AM — Jan 31 9:50 AM, Rovaniemi, Weather by CustomWeather, © 2014

Note: Actual official high and low records may vary slightly from our data, if they occured in-between our weather recording intervals... More about our weather records

Advertising

Rovaniemi weather history for previous 24 hours

 ConditionsComfort  
Time TempWeatherWind HumidityBarometerVisibility
9:50 AM
Jan 31
16 °FLight snow. Low clouds.9 mph100%29.45 "Hg6 mi
9:20 AM16 °FLight snow. Mostly cloudy.9 mph100%29.45 "Hg4 mi
8:50 AM16 °FSnow. Mostly cloudy.9 mph93%29.42 "Hg1 mi
8:20 AM16 °FLight snow. Mostly cloudy.8 mph93%29.42 "Hg1 mi
7:50 AM16 °FLight snow. Mostly cloudy.9 mph93%29.39 "HgN/A
7:20 AM16 °FLight mixture of precip. Mostly cloudy.9 mph93%29.39 "Hg3 mi
6:50 AM16 °FLight snow. Low clouds.8 mph93%29.39 "HgN/A
6:20 AM16 °FLight snow. Mostly cloudy.8 mph93%29.36 "Hg3 mi
5:20 AM16 °FOvercast.7 mph93%29.36 "HgN/A
4:50 AM16 °FOvercast.6 mph93%29.36 "HgN/A
4:20 AM16 °FLight snow. Mostly cloudy.8 mph93%29.33 "HgN/A
3:50 AM16 °FMostly cloudy.7 mph93%29.33 "HgN/A
3:20 AM16 °FSnow flurries. Overcast.8 mph93%29.33 "HgN/A
2:50 AM16 °FSnow flurries. Low clouds.6 mph93%29.33 "HgN/A
2:20 AM16 °FOvercast.6 mph93%29.30 "HgN/A
1:50 AM16 °FSnow flurries. Mostly cloudy.7 mph93%29.30 "HgN/A
1:20 AM16 °FSnow flurries. Partly cloudy.8 mph93%29.30 "HgN/A
12:50 AM16 °FSnow flurries. Mostly cloudy.9 mph93%29.30 "HgN/A
12:20 AM16 °FScattered showers. Mostly cloudy.9 mph93%29.27 "HgN/A
11:50 PM
Jan 30
16 °FLow clouds.9 mph93%29.27 "HgN/A
11:20 PM16 °FSnow flurries. Mostly cloudy.8 mph93%29.27 "HgN/A
10:50 PM16 °FLight snow. Mostly cloudy.9 mph93%29.24 "Hg3 mi
10:20 PM16 °FSnow. Overcast.9 mph93%29.24 "Hg1 mi
9:50 PM16 °FLight snow. Mostly cloudy.9 mph93%29.24 "Hg1 mi
9:20 PM16 °FLight mixture of precip. Mostly cloudy.12 mph93%29.21 "Hg2 mi
8:50 PM14 °FLight snow. Overcast.10 mph100%29.21 "Hg4 mi
8:20 PM14 °FSnow flurries. Partly cloudy.10 mph100%29.21 "Hg3 mi
7:50 PM14 °FLight snow. Mostly cloudy.10 mph100%29.21 "Hg2 mi
7:20 PM14 °FLight snow. Partly cloudy.10 mph100%29.21 "Hg3 mi
6:50 PM14 °FLight snow. Passing clouds.12 mph100%29.21 "Hg4 mi
6:20 PM14 °FSnow. Mostly cloudy.13 mph100%29.21 "Hg1 mi
5:50 PM14 °FLight snow. Mostly cloudy.13 mph100%29.21 "Hg2 mi
5:20 PM14 °FLight snow. Passing clouds.13 mph100%29.21 "Hg2 mi
4:50 PM14 °FLight snow. Mostly cloudy.13 mph100%29.21 "Hg1 mi
4:20 PM14 °FLight snow. Mostly cloudy.13 mph100%29.21 "Hg2 mi
3:50 PM14 °FSnow. Overcast.15 mph100%29.18 "Hg1 mi
3:20 PM14 °FLight snow. Mostly cloudy.14 mph100%29.18 "Hg1 mi
2:50 PM14 °FLight snow. Broken clouds.14 mph100%29.21 "Hg1 mi
2:20 PM14 °FSnow. Ice fog.15 mph100%29.21 "Hg1 mi
1:50 PM14 °FLight snow. Partly sunny.16 mph100%29.21 "Hg1 mi
1:20 PM14 °FLight snow. Broken clouds.14 mph100%29.21 "Hg1 mi
12:50 PM14 °FLight snow. Broken clouds.15 mph100%29.21 "Hg1 mi
12:20 PM14 °FLight snow. Ice fog.14 mph100%29.21 "Hg1 mi
11:50 AM14 °FLight snow. Ice fog.14 mph100%29.21 "Hg1 mi
11:20 AM14 °FLight snow. Ice fog.14 mph100%29.21 "Hg1 mi
Weather by CustomWeather, © 2014

See weather overviewHow to use our weather pages